星链-6229 (STARLINK-6229 )

导读

STARLINK-6229是由美国于北京时间2023年6月22日08:00发射的星链卫星,星链计划是太空探索技术公司(SpaceX)推出的低轨卫星互联网项目,该卫星旨在为全球范围提供高速宽带互联网服务,填补地面通信网络覆盖的空白,尤其是为偏远地区提供网络接入支持,丰富全球通信基础设施布局。

Basic Information
目录编号:
57093
目录名称:
STARLINK-6229
国际标识:
2023-088AX
轨道中心:
EARTH
卫星名称:
星链-6229
卫星全名:
星链-6229 (STARLINK-6229 )
卫星状态:
在轨 (已飞行1088 天)
发射日期:
2023-06-22 UTC
国别 :
美国 (US)
星等 :
--
Orbit Information
数据来源 国际轨道数据 AOE轨道数据
星历时间 2026-06-14T08:29:57+0800
23小时前
查看轨道信息
2026-06-12T15:00:00+0800
2天前
查看轨道信息
半长轴 6861.204km 6861.224km
偏心率 0.000267 0.0002273
轨道倾角 43.007° 43.003°
近地点辐角 269.091° 270.195°
升交点赤经 272.029° 281.801°
平近点角 90.964° 289.783°
近地点 481.235km 481.527km
远地点 484.899km 484.647km
周期 94.267分钟 94.268分钟
每日圈数 15.275743 15.275674
Detailed Information
固有亮度:
5
最大亮度:
2.4
卫星平台:
Starlink v1.5
覆盖范围:
全球
运营商:
太空探索技术公司
运营商所在国:
美国
制造商(研发单位):
太空探索技术公司
制造商所在国:
美国
使用方式:
暂无
Satellite Introduction
星链(Starlink)计划是由太空探索技术公司(SpaceX)提出的一个巨型低轨卫星互联网星座项目,计划在2019年至2024年间在太空搭建由约1.2万颗卫星组成的“星链”网络,其中1584颗将部署在地球上空550千米处的近地轨道,并从2020年开始工作。该卫星仍在工作。
2D Orbit Map
3D Orbit Map
Orbit Altitude Analysis Chart
Orbit Inclination Analysis Chart
Orbit Comprehensive Analysis Chart
View Comprehensive Chart